Find Navstar 5

NORAD ID: 11690 Int'l Des: 1980-011 Owner: AFSD Country: US Constellation: GPS operational
MEO

实时位置

正在加载3D地球...

关于 Navstar 5

正在加载描述...

即将过境

Passes for default location (London). Set your location on the main map for personalized predictions.

高度历史

Loading altitude history...

两行轨道根数

1 11690U 80011A 26105.78010852 -.00000028 00000-0 00000+0 0 9992
2 11690 64.7450 50.5086 0487242 205.1177 338.3653 2.00577904352475
Epoch: Apr 15, 2026 • Age: 9 hours

当前状态

高度 20433.0 km
速度 3.84 km/s
星下点 62.46°N, 100.53°W
发射日期 Feb 9, 1980
运行时间 46.1 years
类型 navigation

技术详情

分类 Payload
质量 431.00 kg
干质量 431.00 kg
总质量 792.00 kg
长度 2.40 m
直径 2.60 m
跨度 5.30 m
形状 Box + 2 Pan
制造商 RWISB
平台类型 GPS
阶段状态 In Orbit
所有者/国家 AFSD/US

Most Searched